(°C)
12°
11°
11°
11°
12°
12°
13°
(°C)
GB
BGB
BGB
BGB
BGB
BGB
BGB
(km/saat)
15-36
14-32
15-31
16-33
18-36
19-39
19-40
(mm)
0
0
0
0
0
0
0
(%)
36
35
38
23
12
1
1

Güneşin açısı

/ 13.5°
sun-icon
UV 3
06:50
19:28
Hilal (149°)
19:14
02:34

55.27°K 86.11°D (UNEE) için METAR

Zaman Koşullar Sıcaklık/
Çiy noktası
Rüzgar Görünürlük Hava Bulutlar Basınç Değiştir Ham
MVFR 12°C / 10°C 230º 8kt >10km - Broken Clouds 1500ft 1000 No Significant change UNEE 180100Z 23004MPS 9999 BKN015 12/10 Q1000 R23/CLRD60 NOSIG RMK QFE727
MVFR 12°C / 10°C 240º 10kt >10km - Broken Clouds 2000ft 1000 No Significant change UNEE 180030Z 24005MPS 9999 BKN020 12/10 Q1000 R23/CLRD60 NOSIG RMK QFE727
VFR 12°C / 10°C 250º 8kt >10km - Scattered Clouds 2000ft 998 No Significant change UNEE 180000Z 25004MPS 9999 SCT020 12/10 Q0998 R23/CLRD60 NOSIG RMK QFE726
VFR 13°C / 9°C 270º 10kt >10km - Scattered Clouds 4600ft 998 No Significant change UNEE 172330Z 27005MPS 9999 SCT046 13/09 Q0998 R23/CLRD60 NOSIG RMK QFE726
VFR 15°C / 7°C 240º 16kt >10km - Broken Clouds 4000ft 997 No Significant change UNEE 172300Z 24008MPS 9999 BKN040CB 15/07 Q0997 R23/CLRD60 NOSIG RMK QFE725
VFR 17°C / 6°C 210º 12kt >10km Light Showers Rain 3.00mm precipitation Vertical Visibility of 0ft. 996 No Significant change UNEE 172230Z 21006MPS 9999 -SHRA BKN040CB 17/06 Q0996 R23/CLRD60 NOSIG RMK QFE724
VFR 17°C / 6°C 180º 10kt >10km Light Showers Rain 3.00mm precipitation Vertical Visibility of 0ft. 995 No Significant change UNEE 172200Z 18005MPS 9999 -SHRA BKN040CB 17/06 Q0995 R23/CLRD60 NOSIG RMK QFE724
VFR 16°C / 6°C 200º 6kt >10km - Scattered Clouds 4000ft 995 No Significant change UNEE 172130Z 20003MPS 9999 SCT040CB 16/06 Q0995 R05/CLRD60 NOSIG RMK QFE724
VFR 15°C / 6°C 120º 6kt >10km Light Showers Rain 3.00mm precipitation Vertical Visibility of 0ft. 995 No Significant change UNEE 172100Z 12003MPS 9999 -SHRA SCT040CB 15/06 Q0995 R23/CLRD60 NOSIG RMK QFE723
VFR 16°C / 6°C 130º 6kt >10km - Scattered Clouds 4000ft 995 No Significant change UNEE 172030Z 13003MPS 9999 SCT040 16/06 Q0995 R23/CLRD60 NOSIG RMK QFE724
VFR 16°C / 5°C 160º 4kt >10km - Scattered Clouds 4000ft 996 No Significant change UNEE 172000Z 16002MPS 9999 SCT040 16/05 Q0996 R23/CLRD60 NOSIG RMK QFE724
VFR 17°C / 5°C 210º variable 170º to 260º 8kt >10km - Scattered Clouds 4000ft 996 No Significant change UNEE 171930Z 21004MPS 170V260 9999 SCT040 17/05 Q0996 R23/CLRD60 NOSIG RMK QFE725
VFR 17°C / 5°C 140º 10kt >10km - Scattered Clouds 3300ft 996 No Significant change UNEE 171900Z 14005MPS 9999 SCT033 17/05 Q0996 R23/CLRD60 NOSIG RMK QFE724
VFR 17°C / 5°C 140º 12kt >10km - Scattered Clouds 3300ft 996 No Significant change UNEE 171830Z 14006MPS 9999 SCT033 17/05 Q0996 R23/CLRD60 NOSIG RMK QFE724
VFR 17°C / 5°C 140º 12kt >10km - Scattered Clouds 3300ft 997 No Significant change UNEE 171800Z 14006MPS 9999 SCT033 17/05 Q0997 R23/CLRD60 NOSIG RMK QFE725
VFR 17°C / 5°C 140º 10kt >10km - Scattered Clouds 3300ft 997 No Significant change UNEE 171730Z 14005MPS 9999 SCT033 17/05 Q0997 R23/CLRD60 NOSIG RMK QFE725
VFR 17°C / 5°C 140º 10kt >10km - Scattered Clouds 4000ft 997 No Significant change UNEE 171700Z 14005MPS 9999 SCT040 17/05 Q0997 R23/CLRD60 NOSIG RMK QFE725
VFR 17°C / 5°C 140º 12kt >10km - Scattered Clouds 4000ft 998 No Significant change UNEE 171630Z 14006MPS 9999 SCT040 17/05 Q0998 R23/CLRD60 NOSIG RMK QFE726
VFR 18°C / 5°C 140º 10kt >10km - Scattered Clouds 4000ft 998 No Significant change UNEE 171600Z 14005MPS 9999 SCT040 18/05 Q0998 R23/CLRD60 NOSIG RMK QFE726
VFR 17°C / 5°C 130º 10kt >10km - Scattered Clouds 4000ft 999 No Significant change UNEE 171530Z 13005MPS 9999 SCT040 17/05 Q0999 R23/CLRD60 NOSIG RMK QFE726
VFR 17°C / 6°C 130º 8kt >10km - Scattered Clouds 4000ft 999 No Significant change UNEE 171500Z 13004MPS 9999 SCT040 17/06 Q0999 R23/CLRD60 NOSIG RMK QFE727
VFR 17°C / 6°C 130º 8kt >10km - Scattered Clouds 4000ft 1000 No Significant change UNEE 171430Z 13004MPS 9999 SCT040CB 17/06 Q1000 R23/CLRD60 NOSIG RMK QFE727
VFR 17°C / 6°C 130º 8kt >10km - Scattered Clouds 4000ft 1000 No Significant change UNEE 171400Z 13004MPS 9999 SCT040CB 17/06 Q1000 R23/CLRD60 NOSIG RMK QFE727
VFR 18°C / 6°C 140º 8kt >10km - Scattered Clouds 4000ft 1000 No Significant change UNEE 171330Z 14004MPS 9999 SCT040CB 18/06 Q1000 R23/CLRD60 NOSIG RMK QFE728

MVFR

12°C / 10°C

[Daha fazla]
Rüzgar 230º 8kt
Görünürlük >10km
Hava -
Bulutlar Broken Clouds 1500ft
Basınç 1000
Değiştir No Significant change
Ham UNEE 180100Z 23004MPS 9999 BKN015 12/10 Q1000 R23/CLRD60 NOSIG RMK QFE727

MVFR

12°C / 10°C

[Daha fazla]
Rüzgar 240º 10kt
Görünürlük >10km
Hava -
Bulutlar Broken Clouds 2000ft
Basınç 1000
Değiştir No Significant change
Ham UNEE 180030Z 24005MPS 9999 BKN020 12/10 Q1000 R23/CLRD60 NOSIG RMK QFE727

VFR

12°C / 10°C

[Daha fazla]
Rüzgar 250º 8kt
Görünürlük >10km
Hava -
Bulutlar Scattered Clouds 2000ft
Basınç 998
Değiştir No Significant change
Ham UNEE 180000Z 25004MPS 9999 SCT020 12/10 Q0998 R23/CLRD60 NOSIG RMK QFE726

VFR

13°C / 9°C

[Daha fazla]
Rüzgar 270º 10kt
Görünürlük >10km
Hava -
Bulutlar Scattered Clouds 4600ft
Basınç 998
Değiştir No Significant change
Ham UNEE 172330Z 27005MPS 9999 SCT046 13/09 Q0998 R23/CLRD60 NOSIG RMK QFE726

VFR

15°C / 7°C

[Daha fazla]
Rüzgar 240º 16kt
Görünürlük >10km
Hava -
Bulutlar Broken Clouds 4000ft
Basınç 997
Değiştir No Significant change
Ham UNEE 172300Z 24008MPS 9999 BKN040CB 15/07 Q0997 R23/CLRD60 NOSIG RMK QFE725

VFR

17°C / 6°C

[Daha fazla]
Rüzgar 210º 12kt
Görünürlük >10km
Hava Light Showers Rain 3.00mm precipitation
Bulutlar Vertical Visibility of 0ft.
Basınç 996
Değiştir No Significant change
Ham UNEE 172230Z 21006MPS 9999 -SHRA BKN040CB 17/06 Q0996 R23/CLRD60 NOSIG RMK QFE724

VFR

17°C / 6°C

[Daha fazla]
Rüzgar 180º 10kt
Görünürlük >10km
Hava Light Showers Rain 3.00mm precipitation
Bulutlar Vertical Visibility of 0ft.
Basınç 995
Değiştir No Significant change
Ham UNEE 172200Z 18005MPS 9999 -SHRA BKN040CB 17/06 Q0995 R23/CLRD60 NOSIG RMK QFE724

VFR

16°C / 6°C

[Daha fazla]
Rüzgar 200º 6kt
Görünürlük >10km
Hava -
Bulutlar Scattered Clouds 4000ft
Basınç 995
Değiştir No Significant change
Ham UNEE 172130Z 20003MPS 9999 SCT040CB 16/06 Q0995 R05/CLRD60 NOSIG RMK QFE724

VFR

15°C / 6°C

[Daha fazla]
Rüzgar 120º 6kt
Görünürlük >10km
Hava Light Showers Rain 3.00mm precipitation
Bulutlar Vertical Visibility of 0ft.
Basınç 995
Değiştir No Significant change
Ham UNEE 172100Z 12003MPS 9999 -SHRA SCT040CB 15/06 Q0995 R23/CLRD60 NOSIG RMK QFE723

VFR

16°C / 6°C

[Daha fazla]
Rüzgar 130º 6kt
Görünürlük >10km
Hava -
Bulutlar Scattered Clouds 4000ft
Basınç 995
Değiştir No Significant change
Ham UNEE 172030Z 13003MPS 9999 SCT040 16/06 Q0995 R23/CLRD60 NOSIG RMK QFE724

VFR

16°C / 5°C

[Daha fazla]
Rüzgar 160º 4kt
Görünürlük >10km
Hava -
Bulutlar Scattered Clouds 4000ft
Basınç 996
Değiştir No Significant change
Ham UNEE 172000Z 16002MPS 9999 SCT040 16/05 Q0996 R23/CLRD60 NOSIG RMK QFE724

VFR

17°C / 5°C

[Daha fazla]
Rüzgar 210º variable 170º to 260º 8kt
Görünürlük >10km
Hava -
Bulutlar Scattered Clouds 4000ft
Basınç 996
Değiştir No Significant change
Ham UNEE 171930Z 21004MPS 170V260 9999 SCT040 17/05 Q0996 R23/CLRD60 NOSIG RMK QFE725

VFR

17°C / 5°C

[Daha fazla]
Rüzgar 140º 10kt
Görünürlük >10km
Hava -
Bulutlar Scattered Clouds 3300ft
Basınç 996
Değiştir No Significant change
Ham UNEE 171900Z 14005MPS 9999 SCT033 17/05 Q0996 R23/CLRD60 NOSIG RMK QFE724

VFR

17°C / 5°C

[Daha fazla]
Rüzgar 140º 12kt
Görünürlük >10km
Hava -
Bulutlar Scattered Clouds 3300ft
Basınç 996
Değiştir No Significant change
Ham UNEE 171830Z 14006MPS 9999 SCT033 17/05 Q0996 R23/CLRD60 NOSIG RMK QFE724

VFR

17°C / 5°C

[Daha fazla]
Rüzgar 140º 12kt
Görünürlük >10km
Hava -
Bulutlar Scattered Clouds 3300ft
Basınç 997
Değiştir No Significant change
Ham UNEE 171800Z 14006MPS 9999 SCT033 17/05 Q0997 R23/CLRD60 NOSIG RMK QFE725

VFR

17°C / 5°C

[Daha fazla]
Rüzgar 140º 10kt
Görünürlük >10km
Hava -
Bulutlar Scattered Clouds 3300ft
Basınç 997
Değiştir No Significant change
Ham UNEE 171730Z 14005MPS 9999 SCT033 17/05 Q0997 R23/CLRD60 NOSIG RMK QFE725

VFR

17°C / 5°C

[Daha fazla]
Rüzgar 140º 10kt
Görünürlük >10km
Hava -
Bulutlar Scattered Clouds 4000ft
Basınç 997
Değiştir No Significant change
Ham UNEE 171700Z 14005MPS 9999 SCT040 17/05 Q0997 R23/CLRD60 NOSIG RMK QFE725

VFR

17°C / 5°C

[Daha fazla]
Rüzgar 140º 12kt
Görünürlük >10km
Hava -
Bulutlar Scattered Clouds 4000ft
Basınç 998
Değiştir No Significant change
Ham UNEE 171630Z 14006MPS 9999 SCT040 17/05 Q0998 R23/CLRD60 NOSIG RMK QFE726

VFR

18°C / 5°C

[Daha fazla]
Rüzgar 140º 10kt
Görünürlük >10km
Hava -
Bulutlar Scattered Clouds 4000ft
Basınç 998
Değiştir No Significant change
Ham UNEE 171600Z 14005MPS 9999 SCT040 18/05 Q0998 R23/CLRD60 NOSIG RMK QFE726

VFR

17°C / 5°C

[Daha fazla]
Rüzgar 130º 10kt
Görünürlük >10km
Hava -
Bulutlar Scattered Clouds 4000ft
Basınç 999
Değiştir No Significant change
Ham UNEE 171530Z 13005MPS 9999 SCT040 17/05 Q0999 R23/CLRD60 NOSIG RMK QFE726

VFR

17°C / 6°C

[Daha fazla]
Rüzgar 130º 8kt
Görünürlük >10km
Hava -
Bulutlar Scattered Clouds 4000ft
Basınç 999
Değiştir No Significant change
Ham UNEE 171500Z 13004MPS 9999 SCT040 17/06 Q0999 R23/CLRD60 NOSIG RMK QFE727

VFR

17°C / 6°C

[Daha fazla]
Rüzgar 130º 8kt
Görünürlük >10km
Hava -
Bulutlar Scattered Clouds 4000ft
Basınç 1000
Değiştir No Significant change
Ham UNEE 171430Z 13004MPS 9999 SCT040CB 17/06 Q1000 R23/CLRD60 NOSIG RMK QFE727

VFR

17°C / 6°C

[Daha fazla]
Rüzgar 130º 8kt
Görünürlük >10km
Hava -
Bulutlar Scattered Clouds 4000ft
Basınç 1000
Değiştir No Significant change
Ham UNEE 171400Z 13004MPS 9999 SCT040CB 17/06 Q1000 R23/CLRD60 NOSIG RMK QFE727

VFR

18°C / 6°C

[Daha fazla]
Rüzgar 140º 8kt
Görünürlük >10km
Hava -
Bulutlar Scattered Clouds 4000ft
Basınç 1000
Değiştir No Significant change
Ham UNEE 171330Z 14004MPS 9999 SCT040CB 18/06 Q1000 R23/CLRD60 NOSIG RMK QFE728

55.27°K 86.11°D (UNEE) için TAF

From till


From till Wind 240º 16kt. Gust 35kt. Visibility 8000m. Broken Clouds 4000ft.
Temporarly from till Light Showers Rain . Broken Clouds 1000ft.
Becoming from till Wind 230º 6kt. Gust 16kt. Visibility 8000m. Broken Clouds 4000ft.

Ham: TAF UNEE 172300Z 1800/1824 24008G18MPS 8000 BKN040CB TEMPO 1801/1806 -SHRA BKN010CB BECMG 1811/1813 23003G08MPS

55.27°K 86.11°D için şu anki uydu ve yağmur görüntüleri

Konum işaretleyici 55.27°K 86.11°D üzerine yerleştirilir. [Daha fazla]

Gerçek zamanlı uydu görüntüsü gündüz süresince görülür ışığı gece süresince kızılötesi ışınım ile birleştirir. Gece kızılötesi ışınım sıcaklık farklarını algılayabildiğinden dolayı görüntü karanlık değildir. Ancak düşük bulutları ve sisi yer sıcaklığından ayırmak zordur ve bu nedenle gece boyunca neredeyse görünmez olabilirler. Avrupa için Meteosat uydu görüntüleri gerçek zamanlı olarak her 5 dakikada bir güncellenir. GOES-16/GOES-17 (Kuzey ve Güney Amerika) ve Himawari (Asya) görüntüleri her 10 dakikada bir güncellenir.

Copyright 2021 EUMETSAT / meteoblue. / Copyright 2021 meteoblue

55.27°K 86.11°D için radar ve yağış nowcast

çiseleyen yağmur
Hafif
Orta
Ağır
Çok ağır
Selamlamak

Konum işaretleyicisi 55.27°K 86.11°D üzerine yerleştirilir. Bu animasyon son saat içerisindeki yağış radarını ve 1h tahminini gösterir. Radar için çiseleyen yağmur veya hafif kar yağışı görünmez olabilir. Yağış yoğunluğu açık maviden turuncuya değişen renk kodludur.